[[{"header":{"parameterUnit":"m.s-1","parameterCategory":1,"la1":30.2991,"la2":30.254,"lo1":-89.0895,"lo2":-89.0444,"dy":0.0017,"dx":0.0017,"nx":28,"ny":28,"refTime":"2025-09-14T21:00:00:Z","depth":0,"parameterNumber":2,"parameterNumberName":"U-component_of_WINDS"},"data":[0,0,0,0,0,0,0,0,0,0,0,0,0,0,0,0,0,0,0,0,0,0,0,0,0,0,0,0,0,0,0,0,0,0,0,0,0,0,0,0,0,0,0,0,0,0,0,0,0,0,0,0,0,0,0,0,0,0,2.1719,2.1719,0,2.1774,2.1775,2.1775,2.1749,2.1747,2.1746,2.1745,2.1799,2.1802,2.1804,0,0,0,0,0,0,0,0,0,0,0,0,0,2.1586,2.1589,2.1719,2.1719,2.172,2.1774,2.1775,2.1775,2.1749,2.1747,2.1746,2.1744,2.1798,2.1801,2.1805,0,0,0,0,0,0,0,0,0,0,0,0,0,2.1643,2.159,2.1719,2.1713,2.1714,2.1774,2.1775,2.1776,2.1749,2.1747,2.1745,2.1743,2.1797,2.1801,2.1805,2.1873,0,0,2.1818,2.1819,0,0,0,0,0,0,0,0,2.164,2.1648,2.1714,2.1714,2.1714,2.1752,2.1748,2.1808,2.175,2.1736,2.1745,2.1742,2.1785,2.179,2.1805,2.1875,2.1878,2.1818,2.1821,2.1822,2.1823,0,0,0,0,0,0,0,2.1636,2.1645,2.174,2.1714,2.1715,2.1707,2.1713,2.1759,2.1771,2.1737,2.1735,2.1742,2.1785,2.1801,2.1806,2.1878,2.1818,2.1822,2.1824,2.1826,2.2003,2.2005,0,0,0,0,0,0,2.1633,2.1642,2.1739,2.1742,2.1671,2.1711,2.1718,2.1742,2.1771,2.1773,2.1744,2.1741,2.1795,2.1801,2.1808,2.1886,2.1822,2.1826,2.1829,2.2001,2.2004,2.2006,0,0,0,0,0,0,2.163,2.1642,2.1737,2.1692,2.1703,2.1716,2.1744,2.1744,2.1761,2.1776,2.1778,2.1758,2.1793,2.1802,2.1856,2.1887,2.1828,2.1832,2.1998,2.2002,2.2005,2.2045,0,0,0,0,0,0,2.1626,2.1641,2.1668,2.1693,2.1706,2.1785,2.1746,2.1747,2.1768,2.1764,2.179,2.1792,2.1792,2.185,2.186,2.1892,2.1835,2.1995,2.2,2.2004,2.2041,2.2049,2.2056,0,0,0,0,0,2.1622,2.1677,2.1669,2.1681,2.174,2.1787,2.1795,2.1794,2.1771,2.1797,2.1806,2.1792,2.1883,2.1856,2.1867,2.1901,2.1993,2.1998,2.2003,2.2037,2.2047,2.2056,0,0,0,0,0,0,2.1656,2.168,2.1672,2.1737,2.176,2.1783,2.1816,2.1806,2.1835,2.183,2.1828,2.1834,2.1889,2.1901,2.187,2.1966,2.1934,2.1942,2.1956,2.1966,2.1974,2.1969,2.1838,0,0,0,0,0,2.1671,2.1708,2.1727,2.1783,2.1795,2.1804,2.1824,2.1822,2.1845,2.1854,2.1868,2.1891,2.1924,2.1946,2.1978,2.2043,2.2046,2.2071,2.2079,2.2085,2.2091,2.2122,2.2133,2.2022,2.2022,2.2022,0,0,2.1702,2.172,2.1744,2.179,2.1808,2.1844,2.1812,2.1853,2.188,2.1861,2.1912,2.1922,2.1947,2.2006,2.2033,2.2017,2.2122,2.2092,2.2097,2.2099,2.2129,2.2139,2.2148,2.2026,2.2025,2.2025,0,0,2.1778,2.1797,2.1843,2.1861,2.1888,2.1893,2.1904,2.1928,2.1934,2.1986,2.1971,2.2002,2.2061,2.2078,2.2094,2.2174,2.216,2.2185,2.2224,2.2255,2.2264,2.2271,2.2297,2.2306,2.2191,2.2191,2.2191,0,2.1813,2.1869,2.1869,2.191,2.1929,2.1914,2.196,2.1977,2.2013,2.2026,2.2008,2.2079,2.2095,2.2156,2.2175,2.219,2.2201,2.2181,2.2263,2.227,2.2278,2.2301,2.2311,2.2193,2.2193,2.2193,2.2192,0,2.191,2.1949,2.1983,2.2017,2.2041,2.2084,2.2089,2.2112,2.2108,2.2114,2.2164,2.2183,2.2216,2.2231,2.2228,2.2291,2.228,2.2263,2.2231,2.2291,2.2313,2.2322,2.2197,2.2196,2.2195,2.2195,0,0,2.2008,2.204,2.2052,2.2066,2.2094,2.2123,2.2165,2.2198,2.2217,2.2242,2.2275,2.2324,2.2307,2.2326,2.2324,2.2351,2.2409,2.233,2.2331,2.2341,2.2476,2.2486,2.2497,2.2401,2.2403,2.2404,2.2473,0,2.2083,2.2157,2.2156,2.2223,2.2257,2.2242,2.2278,2.2298,2.2305,2.2333,2.234,2.2374,2.2351,2.2362,2.2388,2.2396,2.2435,2.2392,2.2429,2.243,2.242,2.251,2.2522,2.2586,2.2482,2.2483,2.2484,0,2.218,2.2207,2.2278,2.2298,2.2312,2.2344,2.2373,2.2402,2.2423,2.2425,2.2445,2.2438,2.2478,2.2446,2.25,2.247,2.2486,2.2492,2.2494,2.2495,2.2459,2.251,2.2606,2.2615,2.2499,2.2498,2.2497,0,2.2241,2.2295,2.2343,2.2356,2.2382,2.2404,2.2415,2.2435,2.2453,2.2478,2.249,2.252,2.2535,2.2557,2.2557,2.2535,2.261,2.258,2.2611,2.2611,2.2626,2.2625,2.2723,2.2641,2.2641,2.2641,2.2641,0,2.2323,2.2366,2.237,2.24,2.2446,2.2445,2.2491,2.25,2.2517,2.2546,2.2536,2.2564,2.2563,2.2591,2.2591,2.2634,2.2642,2.2643,2.2642,2.2643,2.2642,2.2651,2.2645,2.2643,2.2643,2.2642,2.2642,0,2.2398,2.2403,2.2454,2.2473,2.2479,2.2512,2.2527,2.2554,2.256,2.2597,2.2605,2.2613,2.2645,2.2648,2.2685,2.2685,2.2735,2.2731,2.2728,2.2726,2.2757,2.2753,2.2862,2.2875,2.2787,2.2788,2.2789,0,2.2448,2.2481,2.2503,2.2522,2.2534,2.2566,2.2584,2.2584,2.2604,2.2629,2.2652,2.2683,2.2707,2.2758,2.2766,2.2794,2.2788,2.2824,2.2792,2.279,2.2785,2.2782,2.2783,2.283,2.2831,2.2832,2.2832,0,2.2537,2.2537,2.2565,2.2593,2.2616,2.2638,2.2659,2.2675,2.2677,2.2699,2.2731,2.275,2.2787,2.2817,2.2843,2.2853,2.2842,2.2843,2.2851,2.285,2.2846,2.2845,2.2742,2.284,2.2839,2.2838,2.2838,2.2838,2.2599,2.2626,2.2644,2.2675,2.269,2.2709,2.2735,2.2743,2.277,2.28,2.2798,2.2832,2.285,2.2885,2.2897,2.2923,2.291,2.2923,2.2926,2.2928,2.293,2.2844,2.2928,2.2928,2.2928,2.2928,2.2927,0,2.2684,2.2695,2.2723,2.2752,2.2775,2.2764,2.2785,2.2805,2.2836,2.2854,2.2878,2.2913,2.2941,2.2951,2.2978,2.2997,2.2992,2.3004,2.3001,2.3002,2.2941,2.293,2.3007,2.3007,2.3007,2.3007,2.3006,2.3006,2.273,2.2774,2.2776,2.2826,2.2837,2.2871,2.2884,2.29,2.2914,2.2954,2.2978,2.2984,2.2998,2.3025,2.305,2.3052,2.3061,2.3074,2.3073,2.3015,2.3007,2.3,2.2989,2.3077,2.3077,2.3132,2.3133,2.3133]},{"header":{"parameterUnit":"m.s-1","parameterCategory":1,"la1":30.2991,"la2":30.254,"lo1":-89.0895,"lo2":-89.0444,"dy":0.0017,"dx":0.0017,"nx":28,"ny":28,"refTime":"2025-09-14T21:00:00:Z","depth":0,"parameterNumber":3,"parameterNumberName":"V-component_of_WINDS"},"data":[0,0,0,0,0,0,0,0,0,0,0,0,0,0,0,0,0,0,0,0,0,0,0,0,0,0,0,0,0,0,0,0,0,0,0,0,0,0,0,0,0,0,0,0,0,0,0,0,0,0,0,0,0,0,0,0,0,0,1.9181,1.9181,0,1.9141,1.914,1.914,1.908,1.9079,1.9078,1.9077,1.9035,1.9035,1.9035,0,0,0,0,0,0,0,0,0,0,0,0,0,1.9206,1.9206,1.9181,1.9181,1.918,1.9141,1.914,1.914,1.9081,1.9079,1.9078,1.9077,1.9035,1.9035,1.9035,0,0,0,0,0,0,0,0,0,0,0,0,0,1.9184,1.9206,1.9182,1.9146,1.9143,1.9141,1.914,1.9139,1.9081,1.9079,1.9078,1.9076,1.9035,1.9035,1.9034,1.9064,0,0,1.9034,1.9034,0,0,0,0,0,0,0,0,1.9185,1.9183,1.9152,1.9149,1.9145,1.9114,1.9133,1.9114,1.9081,1.9104,1.9077,1.9076,1.9062,1.906,1.9055,1.9062,1.906,1.9034,1.9033,1.9033,1.9033,0,0,0,0,0,0,0,1.9187,1.9184,1.9165,1.9152,1.9147,1.9132,1.9127,1.9129,1.9092,1.9102,1.9098,1.9094,1.906,1.9056,1.9054,1.9059,1.9034,1.9033,1.9033,1.9033,1.9084,1.9085,0,0,0,0,0,0,1.9194,1.9186,1.9166,1.9164,1.9161,1.9133,1.9127,1.9125,1.9092,1.9086,1.9095,1.9091,1.9057,1.9054,1.9052,1.9082,1.9033,1.9033,1.9033,1.9082,1.9084,1.9086,0,0,0,0,0,0,1.9194,1.9192,1.9168,1.9174,1.9169,1.9134,1.9132,1.9125,1.9121,1.9087,1.908,1.9098,1.9056,1.9053,1.9061,1.908,1.9033,1.9033,1.9081,1.9083,1.9085,1.9143,0,0,0,0,0,0,1.9195,1.9193,1.9204,1.9174,1.9169,1.9178,1.9134,1.9126,1.9121,1.9115,1.9088,1.9081,1.9054,1.9061,1.906,1.9079,1.9033,1.9079,1.9082,1.9084,1.9139,1.9147,1.9154,0,0,0,0,0,1.9196,1.9223,1.9205,1.9203,1.9183,1.9179,1.9176,1.9145,1.9123,1.9133,1.9111,1.9082,1.9078,1.9063,1.9061,1.908,1.9077,1.9081,1.9084,1.9136,1.9146,1.9154,0,0,0,0,0,0,1.9256,1.9218,1.9198,1.9216,1.9201,1.9169,1.9182,1.9156,1.9147,1.9143,1.9104,1.9098,1.911,1.9096,1.9079,1.9104,1.9073,1.9076,1.9113,1.9122,1.9129,1.9132,1.9032,0,0,0,0,0,1.9271,1.9272,1.9239,1.9257,1.9251,1.9218,1.9215,1.9192,1.9175,1.9169,1.9147,1.9131,1.9126,1.9123,1.9117,1.9137,1.9129,1.9149,1.9156,1.9162,1.9165,1.9172,1.918,1.9097,1.9097,1.9097,0,0,1.9303,1.9282,1.9285,1.9269,1.9255,1.9255,1.9213,1.9216,1.9216,1.9169,1.9174,1.9158,1.9138,1.9151,1.9156,1.914,1.9186,1.9167,1.9172,1.9171,1.9177,1.9184,1.9191,1.9099,1.9099,1.9099,0,0,1.936,1.9345,1.9358,1.9344,1.9323,1.9301,1.9304,1.9276,1.9263,1.9268,1.9232,1.9231,1.9223,1.921,1.9202,1.9252,1.9224,1.9251,1.9288,1.9296,1.9302,1.9308,1.9323,1.933,1.9254,1.9254,1.9254,0,1.9401,1.9401,1.9368,1.9372,1.9365,1.9323,1.9335,1.9323,1.9301,1.9297,1.9279,1.9267,1.9251,1.9259,1.9271,1.9267,1.9268,1.9253,1.9304,1.9309,1.9314,1.9328,1.9335,1.9257,1.9257,1.9257,1.9256,0,1.9452,1.9453,1.9466,1.9445,1.944,1.9448,1.9415,1.9413,1.939,1.9369,1.9374,1.9352,1.934,1.934,1.9318,1.9345,1.9335,1.9311,1.9279,1.9326,1.9338,1.9344,1.9262,1.9261,1.926,1.9259,0,0,1.9546,1.9506,1.9511,1.95,1.9473,1.9472,1.9478,1.9466,1.9464,1.945,1.9453,1.9447,1.9424,1.9415,1.9391,1.9397,1.9435,1.9372,1.9371,1.9383,1.9461,1.9478,1.9485,1.9418,1.9418,1.9419,1.9462,0,1.9596,1.9604,1.9573,1.9588,1.9587,1.9546,1.9551,1.9534,1.9515,1.951,1.9488,1.9483,1.9455,1.9448,1.9453,1.943,1.945,1.9427,1.9418,1.9418,1.9423,1.9492,1.9511,1.9552,1.9467,1.9468,1.9468,0,1.9656,1.9645,1.966,1.963,1.9629,1.9634,1.9618,1.9615,1.9595,1.958,1.9569,1.9541,1.9543,1.9513,1.9514,1.9498,1.9493,1.948,1.9481,1.9478,1.9445,1.9489,1.9564,1.957,1.9476,1.9476,1.9475,0,1.972,1.9709,1.9716,1.9708,1.9674,1.9678,1.9664,1.9643,1.9636,1.9623,1.9618,1.9606,1.9598,1.9589,1.9557,1.9539,1.9561,1.9529,1.9547,1.9548,1.9552,1.9552,1.9626,1.9552,1.9552,1.9552,1.9552,0,1.9779,1.9789,1.9744,1.9748,1.9758,1.9722,1.9732,1.9714,1.9695,1.9694,1.9658,1.9657,1.9617,1.9611,1.9587,1.959,1.9587,1.9574,1.9567,1.9576,1.9577,1.9571,1.9566,1.9553,1.9553,1.9553,1.9552,0,1.9851,1.9822,1.9826,1.9794,1.9786,1.9794,1.9766,1.9768,1.9745,1.9744,1.9742,1.9707,1.9698,1.9666,1.965,1.9633,1.9643,1.9631,1.965,1.9645,1.9665,1.9662,1.9736,1.9742,1.9666,1.9667,1.9667,0,1.989,1.9897,1.9865,1.9862,1.9849,1.9845,1.9838,1.9803,1.9797,1.9773,1.9777,1.9766,1.9755,1.9743,1.9715,1.9702,1.9688,1.9714,1.9685,1.9694,1.9685,1.9685,1.9684,1.972,1.9721,1.9722,1.9723,0,1.9961,1.9945,1.9937,1.9924,1.9917,1.9905,1.989,1.9889,1.9849,1.9845,1.9835,1.9827,1.981,1.9798,1.978,1.9764,1.9736,1.9732,1.9735,1.9744,1.9754,1.9746,1.9665,1.973,1.9729,1.9729,1.9728,1.9728,2.0016,2.0019,1.9997,1.9989,1.9974,1.9961,1.996,1.9938,1.993,1.9913,1.9893,1.9885,1.9863,1.9835,1.9822,1.9814,1.9799,1.9804,1.9805,1.9807,1.981,1.9756,1.9811,1.9811,1.9811,1.981,1.981,0,2.0083,2.0066,2.0059,2.004,2.0033,2.0008,1.999,1.9985,1.998,1.9961,1.9951,1.9939,1.9927,1.9898,1.9883,1.9883,1.9869,1.988,1.9879,1.9875,1.9826,1.9824,1.9891,1.9891,1.9891,1.9891,1.9891,1.9891,2.0117,2.012,2.0102,2.0098,2.0081,2.0074,2.0065,2.0052,2.0037,2.0026,2.0016,1.9997,1.9974,1.9957,1.9944,1.9935,1.9931,1.9945,1.9932,1.9886,1.9879,1.9871,1.9869,1.9945,1.9945,1.9981,1.9982,1.9982]}]]